Regional Weather Roundup
Issued by NWS Kansas City/Pleasant Hill, MO

Home | Current Version | Previous Version | Graphics & Text | Print | Product List | Glossary Off
Versions: 1 2 3 4 5 6 7 8 9 10 11 12 13 14 15 16 17 18 19 20 21 22 23 24 25 26 27 28 29 30 31 32 33 34 35 36 37 38 39 40 41 42 43 44 45 46 47 48 49 50

000
ASUS43 KEAX 030604
RWREAX

WEATHER ROUNDUP FOR EASTERN KANSAS AND NORTHWEST MISSOURI
NATIONAL WEATHER SERVICE KANSAS CITY/PLEASANT HILL MO
100 AM CDT FRI JUL 03 2015

KSZ040-057-103>105-MOZ028-029-037-043-030700-
...KANSAS CITY METROPOLITAN AREA...

CITY           SKY/WX    TMP DP  RH WIND       PRES   REMARKS
K.C. INTL      CLOUDY    67  66  97 E8        29.95R
6HR MIN TEMP:  67; 6HR MAX TEMP:  70; 6HR PCP:  0.11;

K.C. DOWNTOWN  CLOUDY    71  65  81 E7        29.94R
6HR MIN TEMP:  69; 6HR MAX TEMP:  72; 6HR PCP: TRACE;

LEES SUMMIT    CLOUDY    69  65  86 E8        29.95S
6HR MIN TEMP:  69; 6HR MAX TEMP:  72; 6HR PCP: TRACE;

OLATHE - IXD   CLOUDY    69  67  93 E5        29.95R FOG
6HR MIN TEMP:  69; 6HR MAX TEMP:  73; 6HR PCP:  0.03;

OLATHE - OJC   CLOUDY    68  67  96 E3        29.94S FOG
6HR MIN TEMP:  67; 6HR MAX TEMP:  71; 6HR PCP:  0.17;

LAWRENCE       CLOUDY    69  66  90 E6        29.94R FOG

$$

MOZ001>008-011>017-020>025-030>033-038>040-044>046-053-054-030700-
...NORTHERN AND CENTRAL MISSOURI...

CITY           SKY/WX    TMP DP  RH WIND       PRES   REMARKS
ST. JOSEPH     CLOUDY    66  60  81 NE6       29.95S
6HR MIN TEMP:  66; 6HR MAX TEMP:  71;

MOSBY          CLOUDY    68  61  77 E3        29.95S
WHITEMAN AFB   MOCLDY    69  64  86 E7        29.93F
6HR MIN TEMP:  69; 6HR MAX TEMP:  73; 6HR PCP: TRACE;

CLINTON        MOCLDY    72  70  94 NE5       29.94S
SEDALIA        CLOUDY    69  61  75 NE6       29.96S
6HR MIN TEMP:  69; 6HR MAX TEMP:  74;

WARSAW         CLOUDY    68  68 100 CALM      29.94F
CHILLICOTHE      N/A     66  60  81 NE5       29.97F
6HR MIN TEMP:  66; 6HR MAX TEMP:  73;

KIRKSVILLE     CLOUDY    63  60  90 N3        29.98S
6HR MIN TEMP:  63; 6HR MAX TEMP:  67; 6HR PCP: TRACE;


$$

MOZ041-047>049-056>058-063>065-088>090-097-030700-
...EASTERN AND SOUTHERN MISSOURI...

CITY           SKY/WX    TMP DP  RH WIND       PRES   REMARKS
ST. LOUIS INTL CLOUDY    70  62  76 N3        29.92F
6HR MIN TEMP:  69; 6HR MAX TEMP:  76;

SPIRIT OF STL  MOCLDY    69  62  78 CALM      29.91F
COLUMBIA       LGT RAIN  67  62  84 E8        29.95F
JEFFERSON CITY CLOUDY    69  62  78 VRB3      29.94S
ROLLA          CLOUDY    68  66  93 NE6       29.92S
LEBANON        CLOUDY    70  66  88 NE3       29.94F
OSAGE BEACH    CLOUDY    70  66  88 NE5       29.93F
SPRINGFIELD    CLOUDY    73  70  90 NE5       29.92F
BRANSON        CLOUDY    70  68  94 CALM      29.94F
JOPLIN         CLOUDY    71  70  96 N3        29.92F FOG
WEST PLAINS    LGT RAIN  70  67  90 W6        29.92F
MALDEN         CLOUDY    72  70  94 NW5       29.87F

$$

IAZ060-094-KSZ022-034>040-054-083-096-NEZ052-066-093-030700-
...KANSAS...SOUTHEAST NEBRASKA AND IOWA...

CITY           SKY/WX    TMP DP  RH WIND       PRES   REMARKS
TOPEKA         LGT RAIN  70  67  90 E9        29.93S FOG
6HR MIN TEMP:  70; 6HR MAX TEMP:  74; 6HR PCP: TRACE;

MANHATTAN      CLOUDY    71  70  96 E5        29.92F
EMPORIA        PTCLDY    69  67  93 S6        29.91F
CHANUTE        MOCLDY    70  69  97 S6        29.91F FOG
WICHITA        PTCLDY    69  66  90 SW3       29.93F
OMAHA          CLOUDY    64  56  75 E5        29.99S
LINCOLN        CLOUDY    69  65  86 E7        29.98R
FALLS CITY     CLOUDY    66  60  81 E10       29.95S
LAMONI         CLOUDY    62  58  86 N5        29.98S
DES MOINES     CLOUDY    63  56  78 NE3       29.99S

$$



USA.gov is the U.S. government's official web portal to all federal, state and local government web resources and services.